Wetbulb
37.07 36.59 35.89 35.18 35.15 35.07 34.00 33.39 33.24 33.81 34.53 34.54 34.92 34.72 34.60 34.40 34.91 34.23 33.55 32.95 31.73 31.18 31.55 31.24 30.72 31.69 31.32 31.66 32.20 31.93 30.92 30.58 27.82 30.09 31.32 32.46 32.11 32.15 32.89 33.72 33.65 32.84 33.10
34.71 34.05 33.35 33.09 32.95 32.26 32.05 32.33 32.93 32.30 32.93 32.91 33.18 33.02 32.96 32.57 32.47 31.75 30.50 30.06 28.49 27.09 27.08 26.89 26.76 28.49 27.54 28.47 28.57 28.71 28.24 29.96 28.29 26.20 28.30 28.81 29.12 30.40 27.53 24.83 28.07 27.61 27.78
32.59 31.28 30.53 30.07 29.77 29.32 29.31 30.10 31.14 30.73 30.85 31.43 30.76 29.84 29.72 29.85 29.75 29.74 29.13 26.64 25.15 24.70 24.58 24.32 24.44 24.78 24.39 25.97 26.32 26.05 25.91 26.79 26.61 24.83 23.52 26.28 24.13 24.84 21.62 22.98 22.36 22.31 23.71
30.20 29.00 27.98 27.63 27.42 27.13 27.29 27.10 27.07 27.63 27.06 27.05 27.75 27.87 26.28 25.26 24.70 24.38 24.14 23.12 22.82 22.82 22.60 22.46 22.82 23.32 22.82 23.08 23.17 22.79 22.97 22.26 21.62 20.20 19.71 19.61 19.78 20.88 19.28 17.91 17.14 19.35 19.10
27.35 26.19 25.36 25.57 25.47 25.20 25.08 25.52 25.78 25.36 25.29 25.76 25.57 25.60 26.05 25.39 23.65 21.25 21.01 20.44 20.85 21.07 21.68 21.80 21.99 22.80 24.29 23.69 22.11 21.57 20.44 19.99 18.84 17.17 16.17 15.93 16.03 14.85 13.96 15.78 14.48 15.71 16.19
24.62 23.63 23.88 23.55 23.12 22.76 22.69 22.64 23.06 23.77 24.06 23.75 23.20 23.36 23.64 25.04 26.34 24.71 21.05 18.87 18.92 18.63 18.98 20.52 20.99 21.07 22.35 22.95 22.19 21.74 21.01 18.63 16.63 14.35 12.98 11.83 12.18 12.53 13.52 13.27 12.60 10.50 8.48
22.64 22.38 22.11 21.94 21.47 21.38 21.50 20.99 20.32 20.15 21.18 22.00 22.69 23.03 22.49 23.61 25.84 24.52 22.51 19.69 18.10 17.33 16.92 17.14 18.84 19.76 21.03 20.47 19.61 18.61 18.67 19.61 19.18 15.21 11.01 11.13 10.05 11.88 12.49 10.81 10.02 9.61 8.60
19.51 19.91 20.74 20.56 20.02 20.18 19.68 18.81 18.56 19.02 18.67 19.03 19.75 22.10 22.84 23.91 24.96 23.99 21.91 19.41 18.31 17.12 15.87 15.32 15.79 17.32 19.74 19.88 16.75 14.15 14.48 15.44 15.84 14.52 12.44 11.59 12.39 13.42 12.62 11.46 10.48 7.01 6.65
16.86 17.09 17.97 18.70 17.94 17.87 17.43 17.64 17.99 17.60 17.41 17.42 18.35 18.67 19.64 22.39 25.34 23.07 20.85 18.09 16.80 16.03 15.79 14.45 13.98 16.41 20.00 20.71 15.28 11.11 11.46 13.27 14.66 14.58 13.87 14.18 14.54 14.07 12.96 9.98 3.96 1.72 -0.85
16.53 16.72 17.13 17.30 16.53 15.66 16.23 16.07 16.83 17.39 17.02 17.14 16.82 17.23 18.10 18.47 24.16 24.12 20.09 17.96 14.71 14.25 14.32 13.30 14.75 16.98 18.63 18.67 13.96 9.16 8.64 10.89 7.20 6.30 4.87 6.42 7.64 7.08 9.83 6.44 4.49 -0.85 -1.33
16.71 16.68 16.61 16.43 15.38 15.34 15.00 15.08 14.85 14.38 14.05 13.89 14.47 15.67 16.38 17.36 19.37 22.68 22.90 17.34 15.50 12.87 12.44 11.20 11.32 16.74 16.53 16.07 15.02 8.61 11.67 11.84 3.88 1.05 1.14 1.69 2.67 3.36 4.45 4.88 4.00 1.85 -1.27
13.20 12.98 13.67 14.38 15.50 15.51 13.65 13.78 13.18 12.53 11.47 11.12 10.51 11.78 14.00 15.92 19.67 20.72 21.27 20.75 19.21 12.55 11.24 10.30 10.10 14.50 13.45 12.47 9.82 12.92 12.50 5.10 0.24 -1.29 -2.21 -2.00 -0.57 0.38 1.41 1.79 2.26 2.71 3.46
9.14 7.76 9.78 10.94 13.23 14.45 12.99 13.08 12.55 12.17 11.27 10.52 9.82 8.40 9.64 12.78 15.05 19.59 19.20 19.23 17.51 12.55 10.07 9.78 10.24 9.78 8.68 5.42 6.68 8.26 2.45 -0.68 -2.22 -4.44 -4.44 -3.26 -1.29 -0.51 -0.31 0.11 1.35 1.82 1.92
6.27 7.06 7.59 7.47 8.79 10.22 12.92 13.09 12.58 11.65 9.57 9.92 9.25 8.02 8.12 10.41 14.21 16.91 16.51 15.70 13.68 10.82 3.32 -0.91 4.00 3.18 2.30 2.49 -1.41 -0.59 -1.72 -2.43 -4.04 -5.01 -4.71 -3.45 -2.46 -2.75 -2.68 -0.85 -2.28 -1.38 -2.04
5.52 5.68 5.52 5.44 4.50 4.72 7.05 12.08 11.75 13.51 14.29 10.31 7.69 7.67 8.10 9.97 15.34 17.69 16.42 11.71 9.80 10.26 -2.14 -5.35 -5.92 -6.09 -6.06 -5.57 -5.13 -4.79 -4.09 -4.28 -5.53 -4.91 -5.90 -6.39 -5.58 -4.45 -4.18 -2.21 -2.85 -2.97 -4.22
4.42 3.65 2.45 2.36 1.68 2.08 1.58 3.02 12.48 14.73 15.22 15.63 16.16 14.55 12.65 17.19 17.20 16.14 14.69 10.91 10.29 7.22 -8.11 -10.03 -9.78 -8.90 -9.11 -8.67 -8.61 -8.16 -6.69 -7.05 -6.38 -6.74 -7.16 -6.69 -7.09 -6.80 -6.08 -4.76 -3.28 -4.09 -4.53
-1.09 -0.31 -1.04 -0.82 -0.87 -1.11 -2.63 -3.54 -4.32 -0.04 8.30 10.58 12.93 14.03 15.30 14.66 14.18 13.22 11.35 7.13 6.05 -0.95 -11.53 -11.46 -11.93 -11.17 -10.93 -10.08 -9.91 -9.62 -9.97 -7.99 -7.89 -7.80 -7.77 -7.80 -7.69 -7.32 -7.15 -6.63 -5.30 -4.56 -4.26
-8.44 -6.67 -5.71 -6.22 -5.70 -6.43 -6.74 -7.90 -9.42 -10.26 -8.70 -4.89 1.28 9.67 11.06 11.38 10.66 9.69 7.54 -1.48 -9.36 -8.78 -14.15 -13.44 -13.63 -12.22 -11.73 -11.77 -11.37 -11.16 -10.41 -9.60 -9.24 -8.74 -8.78 -8.63 -8.09 -7.94 -8.10 -7.17 -5.81 -6.15 -4.52
-6.82 -7.52 -10.06 -9.88 -10.30 -10.03 -9.58 -9.62 -10.70 -10.54 -10.13 -10.28 -8.56 -0.11 0.09 6.19 5.70 4.10 2.28 -10.63 -15.24 -12.71 -12.17 -12.53 -11.93 -12.17 -12.27 -12.20 -12.05 -11.84 -11.61 -11.38 -10.59 -10.61 -9.54 -8.72 -7.89 -7.75 -7.96 -6.83 -5.92 -5.12 -4.17
-12.61 -6.59 -11.85 -12.47 -12.85 -11.67 -10.51 -10.75 -10.42 -11.68 -11.66 -11.47 -9.38 -8.27 -4.59 -6.34 -9.30 -10.25 -10.57 -13.22 -13.48 -12.78 -12.40 -12.88 -12.08 -11.86 -12.17 -12.66 -12.69 -12.45 -12.44 -11.55 -10.88 -10.09 -9.14 -8.18 -7.26 -6.67 -7.60 -6.78 -4.89 -3.95 -4.75
-15.14 -15.00 -12.36 -14.42 -14.56 -16.48 -16.16 -13.81 -14.30 -15.36 -15.12 -15.23 -13.01 -10.49 8.93 -11.42 -12.77 -14.90 -14.90 -13.23 -14.36 -13.40 -12.98 -12.47 -12.32 -11.95 -11.91 -12.27 -12.49 -12.37 -12.52 -11.87 -11.11 -10.08 -9.09 -7.73 -7.24 -8.16 -6.20 -4.16 -2.22 -3.08 -4.14
-15.23 -16.94 -17.88 -17.53 -16.92 -13.90 -15.78 -16.83 -17.91 -18.32 -17.67 -16.02 -13.33 -13.10 1.68 -12.43 -14.36 -14.05 -12.65 -13.00 -12.04 -12.92 -12.75 -13.43 -12.60 -11.72 -11.55 -11.82 -11.87 -11.98 -12.52 -12.42 -10.70 -8.73 -8.59 -8.42 -7.82 -6.60 -3.71 -1.82 -2.95 -3.35 -3.58
-15.22 -16.83 -17.62 -19.05 -19.70 -18.33 -18.35 -20.41 -19.57 -19.14 -17.51 -16.76 -15.95 -14.54 -14.54 -14.40 -14.43 -14.05 -13.79 -12.99 -12.85 -11.64 -10.96 -11.74 -10.98 -10.47 -8.85 -9.40 -9.72 -10.89 -12.57 -11.58 -9.16 -8.67 -10.05 -9.32 -6.89 -4.29 -1.49 -3.04 -3.41 -3.89 -3.25
-10.09 -10.14 -15.00 -14.26 -18.21 -13.90 -14.10 -12.97 -14.03 -13.98 -17.73 -16.52 -16.92 -15.77 -14.62 -14.88 -15.41 -14.90 -14.27 -13.26 -12.86 -11.62 -11.37 -11.92 -10.47 -9.25 -9.24 -8.92 -8.68 -9.13 -9.86 -9.92 -8.78 -8.50 -7.34 -6.22 -2.69 0.33 -2.16 -3.51 -2.97 -2.91 -3.16
-12.88 -15.18 -13.95 -10.86 -11.44 -9.86 -10.16 -11.14 -12.23 -17.52 -18.73 -16.05 -14.63 -15.45 -14.75 -15.30 -15.00 -14.48 -13.88 -14.02 -14.13 -13.34 -11.45 -10.60 -9.70 -8.13 -6.71 -7.02 -8.34 -9.55 -9.58 -8.31 -8.46 -4.41 0.51 5.86 -0.27 -6.12 -4.08 -2.67 -2.26 -3.47 -2.97
-9.96 -7.10 -7.04 -8.06 -7.89 -8.46 -9.95 -11.35 -13.05 -16.29 -17.94 -14.55 -14.37 -15.69 -16.13 -16.23 -15.07 -14.85 -14.59 -15.02 -13.81 -12.34 -12.97 -10.66 -9.02 -9.54 -8.10 -6.34 -5.57 -2.83 -0.41 4.53 6.65 10.52 11.35 3.00 -5.17 -3.64 -1.10 -2.47 -2.66 -3.31 -2.39
MSLP
1013.30 1013.95 1013.94 1014.42 1015.23 1016.19 1015.72 1016.23 1016.77 1016.55 1017.36 1016.56 1017.79 1018.67 1018.62 1018.49 1019.02 1019.25 1019.86 1020.52 1020.62 1021.35 1021.95 1021.92 1022.23 1022.10 1022.17 1022.35 1022.16 1022.11 1021.84 1021.47 1021.33 1021.14 1021.11 1020.51 1020.25 1019.97 1019.46 1019.28 1019.03 1018.44 1017.95
1015.49 1015.65 1015.82 1015.72 1017.73 1018.19 1018.23 1018.51 1018.75 1018.56 1019.27 1019.17 1019.56 1019.72 1020.38 1020.42 1020.92 1021.06 1021.89 1022.65 1022.78 1023.20 1023.65 1023.38 1023.22 1023.19 1023.35 1023.35 1023.05 1022.84 1022.62 1022.19 1021.94 1021.43 1021.10 1020.77 1020.23 1019.83 1019.71 1019.34 1018.90 1018.61 1018.15
1017.13 1016.69 1017.59 1017.74 1019.35 1020.21 1020.14 1020.39 1020.33 1020.62 1020.96 1021.50 1021.39 1021.52 1022.24 1022.27 1023.11 1023.34 1024.00 1024.69 1024.66 1024.90 1024.95 1024.68 1024.59 1024.33 1024.45 1024.33 1024.08 1023.76 1023.46 1022.97 1022.55 1022.09 1021.46 1020.96 1020.67 1020.13 1019.96 1019.47 1019.19 1018.76 1018.10
1018.24 1018.85 1019.71 1020.42 1021.37 1021.75 1022.02 1022.19 1022.39 1022.30 1022.45 1023.12 1023.19 1023.38 1023.85 1024.43 1025.21 1025.48 1025.77 1025.97 1025.82 1025.99 1026.08 1026.08 1026.19 1025.82 1025.53 1025.18 1024.72 1024.45 1023.97 1023.37 1023.05 1022.68 1022.09 1021.70 1021.33 1020.85 1020.60 1019.87 1018.92 1018.81 1017.97
1020.26 1020.72 1021.28 1022.20 1023.00 1023.07 1022.75 1023.49 1024.18 1024.09 1024.22 1024.81 1025.12 1025.42 1025.62 1025.61 1026.26 1026.55 1026.79 1026.92 1027.30 1027.16 1027.30 1027.11 1026.99 1026.65 1025.99 1025.54 1025.25 1024.90 1024.58 1024.04 1023.70 1023.39 1023.07 1022.58 1021.93 1021.32 1020.87 1020.32 1019.53 1018.62 1017.79
1022.01 1022.52 1024.04 1024.56 1024.05 1024.27 1025.24 1025.98 1026.02 1026.50 1026.43 1026.27 1026.83 1026.58 1026.73 1026.87 1027.21 1027.43 1028.07 1028.31 1028.43 1028.20 1028.06 1027.73 1027.38 1027.02 1026.67 1026.18 1026.16 1025.93 1025.79 1025.14 1024.84 1024.66 1024.17 1023.57 1023.02 1022.68 1021.89 1021.07 1019.98 1019.08 1017.59
1023.84 1024.56 1025.31 1025.82 1026.03 1026.76 1027.84 1027.89 1027.92 1027.86 1028.08 1028.00 1028.16 1028.32 1027.93 1027.93 1027.99 1028.22 1028.52 1029.07 1028.97 1029.04 1028.88 1028.60 1028.20 1027.96 1027.37 1026.96 1026.64 1026.69 1026.14 1025.71 1025.29 1025.21 1024.91 1024.33 1023.78 1023.08 1022.31 1021.19 1020.66 1019.65 1018.48
1025.70 1026.48 1027.11 1027.79 1028.28 1028.82 1028.77 1029.16 1029.11 1029.40 1029.66 1029.80 1029.46 1028.93 1028.85 1028.99 1028.91 1029.30 1029.53 1029.64 1029.79 1030.03 1029.88 1029.79 1029.41 1028.77 1027.97 1027.06 1026.94 1026.80 1026.30 1025.95 1025.41 1025.52 1025.18 1024.65 1024.00 1023.08 1022.51 1021.77 1020.68 1020.00 1018.79
1028.19 1028.70 1029.29 1029.86 1029.58 1029.87 1030.11 1030.33 1030.65 1030.96 1030.73 1031.09 1030.83 1030.32 1030.31 1029.90 1029.79 1030.53 1030.74 1030.79 1030.77 1030.61 1030.54 1030.53 1030.05 1028.93 1028.28 1027.47 1027.22 1027.31 1026.46 1025.96 1025.86 1025.69 1025.31 1024.74 1023.88 1023.22 1022.62 1021.48 1020.88 1020.12 1018.08
1030.86 1031.07 1031.32 1031.46 1031.34 1031.89 1031.84 1031.99 1032.24 1032.08 1032.09 1032.18 1031.90 1031.85 1031.83 1031.54 1031.18 1031.16 1031.48 1031.13 1031.06 1030.88 1030.75 1030.99 1030.99 1029.65 1028.68 1027.98 1027.48 1027.56 1026.76 1025.97 1026.15 1025.81 1025.61 1024.76 1024.09 1023.38 1022.61 1022.20 1021.28 1020.19 1019.03
1032.66 1032.58 1032.74 1032.90 1032.85 1033.11 1033.53 1033.28 1033.45 1033.30 1033.24 1033.19 1033.41 1033.12 1033.16 1033.01 1032.37 1031.70 1031.35 1031.73 1031.36 1031.62 1031.12 1030.88 1030.64 1029.42 1028.91 1028.33 1027.99 1028.14 1026.71 1025.98 1026.68 1026.52 1025.90 1025.14 1024.36 1023.46 1022.58 1021.94 1021.46 1020.67 1019.15
1033.72 1033.84 1033.99 1034.10 1034.33 1034.31 1033.82 1033.79 1033.88 1033.71 1033.50 1034.14 1034.04 1034.05 1033.75 1033.66 1033.03 1032.52 1032.11 1031.58 1031.36 1031.60 1031.37 1031.21 1031.00 1030.01 1029.70 1029.03 1029.04 1028.01 1027.22 1027.78 1027.49 1026.97 1026.22 1025.32 1024.44 1023.53 1022.50 1021.67 1020.79 1019.82 1018.81
1035.04 1035.25 1035.23 1035.07 1034.92 1034.77 1034.66 1034.63 1034.60 1034.44 1034.60 1034.71 1034.27 1034.62 1034.83 1034.54 1034.03 1032.92 1032.45 1031.78 1031.61 1031.68 1032.51 1032.25 1031.45 1031.12 1030.65 1030.20 1029.64 1028.84 1028.83 1028.36 1027.88 1027.17 1026.39 1025.43 1024.56 1023.52 1022.44 1021.07 1019.69 1018.52 1017.06
1036.13 1036.30 1036.36 1036.26 1036.26 1036.11 1035.94 1035.74 1035.42 1035.34 1035.53 1035.60 1035.94 1036.16 1035.75 1034.49 1033.46 1032.85 1032.62 1032.48 1032.63 1032.37 1033.30 1033.46 1032.66 1032.20 1031.46 1030.77 1030.58 1029.85 1029.31 1028.80 1028.24 1027.39 1026.44 1025.33 1024.31 1023.25 1021.99 1020.72 1019.14 1017.53 1016.03
1037.54 1037.74 1037.78 1037.77 1037.83 1037.75 1037.37 1036.71 1036.51 1036.31 1036.26 1036.49 1036.52 1036.47 1035.90 1034.75 1033.86 1033.21 1032.74 1033.13 1033.00 1032.66 1034.08 1034.11 1033.42 1032.57 1031.82 1031.32 1030.74 1030.02 1029.35 1028.77 1028.15 1027.42 1026.43 1025.25 1024.01 1022.81 1021.40 1020.09 1018.82 1017.13 1015.68
1038.56 1038.96 1039.31 1039.34 1039.30 1039.22 1039.06 1038.83 1037.88 1037.37 1037.20 1036.91 1036.38 1036.02 1035.86 1034.67 1034.14 1033.77 1033.66 1034.16 1033.75 1033.89 1034.76 1034.41 1033.97 1033.38 1032.74 1032.07 1031.37 1030.50 1029.66 1029.01 1028.40 1027.50 1026.37 1025.31 1024.05 1022.63 1021.07 1019.48 1018.25 1016.87 1014.95
1040.25 1040.57 1040.63 1040.49 1040.34 1040.17 1040.10 1040.12 1039.80 1039.15 1038.30 1037.74 1036.97 1036.35 1035.62 1035.29 1034.77 1034.57 1034.61 1035.07 1034.73 1034.95 1035.38 1035.12 1034.67 1034.08 1033.58 1032.92 1032.11 1031.27 1030.23 1029.34 1028.54 1027.46 1026.38 1025.10 1023.88 1022.46 1021.11 1019.32 1017.60 1016.08 1013.95
1041.38 1041.43 1041.32 1041.45 1041.37 1041.33 1041.23 1041.04 1040.75 1040.27 1039.66 1039.00 1038.10 1036.82 1036.36 1035.93 1035.71 1035.46 1035.42 1036.01 1035.89 1035.55 1035.71 1035.51 1035.10 1034.59 1034.01 1033.26 1032.38 1031.46 1030.32 1029.27 1028.30 1027.24 1026.03 1024.77 1023.53 1022.27 1020.51 1018.84 1017.17 1015.46 1013.28
1041.93 1042.02 1041.99 1042.05 1042.13 1042.03 1041.78 1041.58 1041.24 1040.97 1040.61 1040.13 1039.37 1037.95 1037.94 1036.97 1036.66 1036.61 1036.54 1037.08 1037.10 1036.55 1036.14 1035.76 1035.35 1034.78 1034.07 1033.29 1032.42 1031.49 1030.54 1029.34 1028.18 1027.02 1025.60 1024.28 1022.95 1021.78 1019.95 1018.38 1016.55 1014.69 1012.72
1042.37 1042.40 1042.34 1042.36 1042.38 1042.23 1042.02 1041.81 1041.61 1041.46 1041.06 1040.61 1039.98 1039.15 1038.32 1038.08 1038.01 1038.12 1037.95 1037.68 1037.31 1036.88 1036.40 1035.90 1035.16 1034.52 1033.92 1033.16 1032.17 1031.20 1030.06 1028.91 1027.74 1026.56 1025.10 1023.83 1022.37 1021.08 1019.48 1017.64 1015.73 1013.66 1011.63
1042.85 1042.77 1042.56 1042.35 1042.33 1042.40 1042.42 1042.34 1042.17 1041.93 1041.68 1041.31 1040.72 1039.88 1036.99 1038.94 1039.11 1038.90 1038.40 1037.75 1037.39 1036.99 1036.37 1035.77 1035.05 1034.25 1033.52 1032.75 1031.79 1030.82 1029.83 1028.62 1027.43 1026.05 1024.71 1023.15 1021.80 1020.35 1018.68 1016.86 1014.89 1013.02 1010.99
1042.60 1042.47 1042.42 1042.51 1042.59 1042.51 1042.52 1042.52 1042.46 1042.24 1041.85 1041.45 1040.80 1040.06 1038.53 1039.61 1039.29 1038.85 1038.24 1037.65 1037.17 1036.76 1036.17 1035.64 1034.81 1033.89 1033.00 1032.25 1031.44 1030.53 1029.48 1028.14 1026.60 1025.45 1024.11 1022.65 1021.15 1019.54 1017.71 1015.88 1014.11 1012.09 1010.03
1042.35 1042.40 1042.49 1042.55 1042.67 1042.64 1042.58 1042.52 1042.42 1042.18 1041.78 1041.29 1040.82 1040.43 1039.95 1039.62 1039.26 1038.69 1038.07 1037.53 1036.95 1036.19 1035.49 1034.97 1034.16 1033.02 1032.07 1031.40 1030.67 1030.02 1029.04 1027.34 1026.03 1024.98 1023.76 1022.01 1020.23 1018.52 1016.89 1015.32 1013.37 1011.29 1009.11
1041.90 1042.16 1042.34 1042.54 1042.48 1042.51 1042.54 1042.35 1042.05 1041.71 1041.46 1041.08 1040.72 1040.40 1040.05 1039.66 1039.18 1038.60 1038.01 1037.32 1036.62 1035.74 1035.03 1034.36 1033.53 1032.53 1031.51 1030.50 1029.57 1028.62 1027.62 1026.51 1025.46 1024.07 1022.79 1021.10 1019.27 1017.66 1016.48 1014.80 1012.87 1010.85 1008.60
1041.92 1041.93 1042.02 1042.00 1042.09 1042.11 1041.97 1041.63 1041.43 1041.31 1041.09 1040.79 1040.49 1040.27 1039.85 1039.41 1038.80 1038.18 1037.56 1036.97 1036.31 1035.53 1034.49 1033.73 1032.85 1031.88 1030.74 1029.62 1028.53 1027.32 1026.14 1024.88 1023.94 1022.59 1021.07 1019.08 1018.56 1017.58 1016.08 1014.38 1012.33 1010.28 1008.19
1041.22 1041.24 1041.35 1041.45 1041.43 1041.28 1041.15 1041.05 1040.97 1040.81 1040.67 1040.42 1040.20 1039.88 1039.51 1039.03 1038.43 1037.94 1037.36 1036.75 1035.95 1035.14 1034.42 1033.27 1032.16 1031.27 1030.04 1028.76 1027.38 1026.07 1024.67 1023.28 1022.22 1020.46 1019.31 1018.71 1018.25 1016.95 1015.54 1013.87 1011.88 1010.25 1007.96
Wind_Speed
19 18 20 21 20 17 18 17 16 16 15 21 17 15 15 17 16 16 17 15 17 14 12 12 12 10 8 6 5 5 5 4 2 2 4 7 9 11 10 10 10 11 9
18 20 20 25 19 18 18 17 17 18 17 17 17 18 18 18 17 18 17 15 16 15 13 14 13 9 11 10 7 9 8 7 6 8 8 8 9 10 10 12 9 10 11
18 21 22 24 20 20 20 19 19 20 19 18 19 20 18 18 17 17 17 16 16 15 15 15 14 13 11 9 8 8 7 6 6 6 7 7 8 8 11 10 11 12 11
21 21 21 22 19 19 19 19 19 19 20 19 20 20 19 18 17 16 15 15 15 14 14 14 13 13 12 11 9 9 8 8 8 7 8 8 9 10 10 11 11 11 12
21 22 22 20 19 19 21 20 19 20 19 18 18 18 17 17 13 14 15 14 12 12 11 11 13 16 22 18 9 10 11 9 8 9 9 10 10 11 12 11 12 12 13
22 23 19 18 20 21 20 18 18 18 18 19 18 18 17 13 26 25 16 12 12 12 12 11 11 15 17 20 19 18 14 12 11 9 10 11 14 13 11 11 12 13 13
21 20 19 18 20 19 16 17 17 17 16 17 17 16 17 16 26 24 22 11 11 12 13 13 12 11 14 14 16 17 14 16 13 10 12 12 15 15 15 15 15 14 14
21 19 18 17 17 15 16 16 16 14 15 14 15 16 16 17 26 23 20 13 12 13 13 14 13 14 15 15 13 13 12 11 10 10 12 13 14 15 14 14 15 16 14
18 17 15 14 15 15 16 15 14 13 13 13 13 15 15 16 26 25 16 12 12 11 11 12 15 16 23 24 14 13 13 12 11 19 20 23 22 22 18 11 9 11 13
16 15 14 14 15 14 14 14 12 12 13 10 13 14 15 14 24 24 17 9 12 10 10 11 17 20 24 23 14 13 13 14 13 13 13 16 17 16 21 13 10 12 12
13 13 13 14 15 14 12 11 10 11 11 11 10 10 10 11 14 24 24 11 9 9 9 10 10 26 24 22 19 11 14 16 14 11 11 11 11 12 11 11 13 11 12
12 13 13 13 10 9 11 11 11 10 11 9 9 7 7 8 16 20 23 21 18 10 10 9 12 24 22 20 15 23 23 16 9 9 9 10 10 11 11 13 15 14 13
13 12 11 11 11 11 11 10 8 9 8 8 9 9 9 8 7 17 19 21 19 12 9 16 21 20 20 13 20 22 15 9 9 9 10 10 11 12 15 14 14 15 16
12 11 10 10 10 9 8 7 8 8 8 7 6 6 5 7 7 9 9 8 15 8 12 10 14 15 15 14 10 11 9 9 9 9 10 11 11 11 12 11 13 13 13
10 8 7 7 8 7 8 7 6 8 9 4 1 2 6 6 10 18 17 11 10 13 9 6 7 9 9 9 9 9 9 9 9 9 10 11 11 12 12 11 11 13 13
10 7 6 6 5 5 5 5 13 14 16 16 14 11 4 16 20 21 21 20 20 21 5 7 8 9 9 10 10 11 10 11 10 11 10 10 11 12 13 13 12 12 15
8 4 4 4 4 5 4 5 5 7 11 15 15 16 17 20 20 20 20 19 20 15 7 7 8 8 9 9 9 9 11 10 11 9 10 11 11 12 14 13 13 14 15
5 5 4 3 3 3 3 3 2 4 6 6 10 14 17 21 19 20 21 13 8 8 4 7 7 8 8 8 9 10 10 10 10 10 11 11 11 11 13 13 14 16 17
4 3 3 3 3 3 2 2 3 3 3 3 4 6 7 18 17 17 18 6 4 7 7 7 6 7 8 8 9 9 10 10 11 11 11 11 11 11 13 13 15 21 22
3 5 4 3 3 3 3 3 3 3 3 4 5 5 5 6 7 8 6 4 5 6 6 7 8 7 8 8 9 9 10 10 10 10 11 11 11 11 13 15 15 17 18
3 2 2 3 3 3 2 3 3 3 3 3 3 5 15 4 5 5 5 6 5 6 6 7 8 8 8 8 8 9 9 10 10 11 11 12 12 13 14 14 16 17 18
3 2 2 2 2 3 3 2 2 3 3 4 4 4 14 3 4 5 6 6 6 6 5 6 8 8 8 8 9 9 10 11 11 11 12 12 13 13 14 15 17 17 18
3 3 1 1 1 2 3 2 2 3 3 4 4 4 3 4 5 5 6 6 6 7 7 6 8 9 8 8 8 8 10 12 11 11 13 14 14 14 14 15 17 18 18
3 1 1 2 2 2 2 3 2 3 4 4 4 4 4 4 5 6 6 6 7 7 7 7 8 12 11 11 9 9 10 11 10 13 17 14 14 15 14 16 17 21 19
3 2 2 2 2 3 4 3 3 3 4 4 4 3 4 4 5 6 6 6 6 7 9 9 8 11 14 17 16 17 16 19 15 18 14 13 13 16 15 15 18 18 22
3 3 3 2 3 3 3 3 4 3 3 4 4 4 4 4 5 6 6 7 7 8 10 8 11 15 17 14 15 19 21 22 19 22 16 8 9 12 14 18 23 17 21
Wind_Direction
70 72 75 71 67 62 63 57 55 58 52 56 60 65 62 63 63 67 62 61 65 64 55 60 54 46 50 44 40 36 38 32 334 292 291 318 319 317 322 322 310 309 306
76 79 73 71 64 63 63 63 62 64 58 60 63 60 55 59 58 62 62 56 59 58 52 52 47 41 37 27 23 19 14 6 340 322 323 332 334 343 353 333 324 325 322
75 75 72 74 66 61 61 58 61 62 59 60 62 62 58 56 58 57 61 60 58 55 49 46 39 38 32 24 21 16 7 357 355 333 324 328 334 333 336 323 322 316 313
73 69 69 70 67 69 67 63 60 64 65 60 57 59 59 58 56 58 61 59 57 53 50 45 37 35 31 22 17 17 3 3 357 345 330 331 328 338 328 326 322 319 316
74 71 65 65 68 65 61 61 59 58 62 61 62 62 62 64 62 58 57 54 52 54 50 46 38 31 30 25 15 9 4 -0 352 344 332 328 331 337 333 327 312 315 312
69 69 68 65 64 62 60 59 61 60 62 65 60 59 60 61 63 64 62 58 51 46 37 31 33 22 18 19 13 6 6 355 355 348 335 331 329 324 320 319 314 315 317
66 66 66 64 63 65 66 63 61 60 57 57 61 61 60 56 56 55 55 54 53 45 39 27 21 15 5 2 5 358 357 353 357 352 331 325 317 318 317 314 310 304 299
62 62 62 64 67 67 65 63 60 58 57 54 50 53 57 54 50 48 47 47 45 42 37 27 13 7 355 356 356 348 342 338 341 345 325 316 307 313 312 307 309 305 292
58 58 58 61 66 61 61 58 59 61 60 55 52 49 44 47 47 44 36 35 32 30 28 22 9 360 353 353 355 341 334 329 345 331 325 319 320 322 316 318 307 306 302
63 64 61 61 65 64 60 58 55 56 59 56 54 43 38 34 37 36 42 25 21 13 13 12 3 354 354 352 354 344 328 331 342 336 328 325 325 318 319 314 310 298 301
68 67 65 65 64 62 67 62 63 62 61 53 53 42 35 22 25 28 26 24 25 6 359 357 354 347 349 349 352 325 325 344 338 322 316 314 313 311 310 307 302 294 291
66 63 58 59 60 61 63 57 52 50 51 45 44 37 24 11 13 21 16 17 10 4 356 354 341 345 346 350 349 336 346 347 326 321 317 316 315 312 309 303 295 286 277
66 57 54 52 46 49 51 49 48 43 43 36 34 26 8 354 339 9 9 8 11 7 8 349 348 350 348 344 341 342 351 337 330 323 318 311 311 307 303 302 299 295 287
64 56 47 47 41 33 48 44 44 42 36 30 29 26 355 341 348 6 4 16 7 25 10 355 350 348 349 345 330 335 334 331 324 317 312 308 309 308 307 307 305 306 302
68 61 54 52 43 34 29 34 37 32 40 25 13 5 354 344 4 4 7 13 357 7 7 341 345 353 348 345 341 336 335 333 329 323 317 314 313 313 309 309 303 303 298
74 57 47 49 38 44 30 19 34 42 39 35 33 26 4 10 7 8 16 15 5 13 13 1 353 350 348 343 338 332 332 330 326 318 312 312 311 311 310 311 306 304 302
94 81 73 62 52 42 37 40 18 347 20 26 24 22 17 13 12 11 18 16 9 18 13 356 346 341 333 328 325 323 318 318 313 308 309 309 306 304 310 307 307 305 301
78 73 78 68 59 50 37 33 20 25 4 354 359 16 14 12 16 15 18 11 5 8 357 346 334 329 323 318 318 316 314 313 311 309 307 303 303 304 306 305 306 304 305
106 86 80 76 60 59 46 36 33 21 6 329 320 354 2 10 18 17 18 23 347 343 339 331 322 317 314 311 308 305 303 301 303 304 302 302 304 303 300 300 300 302 305
80 92 77 72 40 33 26 30 20 15 1 358 351 333 326 10 6 353 345 328 332 334 325 319 317 312 308 303 302 303 303 304 306 305 302 301 300 300 298 300 301 308 306
108 87 81 75 53 28 17 14 2 358 354 337 311 313 7 28 324 312 307 322 316 316 314 312 308 305 300 296 297 302 300 298 297 297 299 299 302 300 299 296 303 305 302
132 113 70 61 14 17 347 328 325 318 319 326 316 319 353 342 311 311 318 313 312 295 282 285 294 293 290 291 296 297 297 294 295 299 299 299 299 297 300 305 308 306 306
117 109 48 10 7 318 322 296 288 304 308 307 313 320 314 311 311 309 307 310 306 304 299 292 293 297 296 290 282 277 280 284 291 294 292 294 297 298 306 310 309 309 309
138 136 0 322 320 294 283 297 307 303 297 302 307 303 300 299 302 304 302 305 303 300 296 291 291 294 298 299 294 280 271 276 280 282 285 284 289 309 312 309 311 311 307
142 155 230 255 266 279 288 302 312 300 291 295 298 293 292 296 302 303 303 300 296 300 305 305 297 298 301 303 295 288 285 285 277 279 285 296 301 307 306 311 313 312 312
177 221 241 247 255 259 279 305 302 289 285 288 284 287 286 293 294 297 298 300 308 311 304 300 300 300 302 302 297 297 298 300 302 304 310 303 308 313 320 320 318 317 315